QPF
0.00 0.00 0.00 0.00 0.00 0.00 0.00 0.00 0.00 0.00 0.00 0.00 0.00 0.00 0.00 0.00 0.00 0.00 0.00 0.00 0.00 0.00 0.00 0.00 0.04 0.07 0.04 0.01 0.01 0.03 0.03 0.01 0.00 0.01 0.02 0.03 0.00 0.00 0.01 0.02 0.02 0.00 0.00 0.00 0.00 0.00 0.00 0.00 0.00
0.00 0.00 0.00 0.00 0.00 0.03 0.03 0.00 0.00 0.00 0.00 0.00 0.00 0.00 0.00 0.00 0.00 0.00 0.00 0.00 0.00 0.00 0.00 0.00 0.02 0.03 0.01 0.01 0.01 0.03 0.02 0.01 0.01 0.04 0.04 0.01 0.01 0.01 0.01 0.01 0.00 0.00 0.00 0.00 0.00 0.00 0.00 0.00 0.00
0.00 0.00 0.00 0.00 0.00 0.02 0.02 0.00 0.00 0.00 0.00 0.00 0.00 0.00 0.00 0.00 0.00 0.00 0.00 0.00 0.00 0.00 0.00 0.00 0.02 0.01 0.00 0.01 0.01 0.02 0.01 0.01 0.02 0.03 0.01 0.01 0.02 0.02 0.01 0.01 0.00 0.00 0.00 0.00 0.00 0.00 0.00 0.00 0.00
0.00 0.00 0.00 0.00 0.00 0.00 0.00 0.00 0.00 0.00 0.00 0.00 0.00 0.00 0.00 0.00 0.00 0.00 0.00 0.00 0.00 0.00 0.01 0.00 0.01 0.00 0.01 0.00 0.01 0.02 0.03 0.02 0.05 0.04 0.02 0.01 0.03 0.01 0.00 0.00 0.00 0.00 0.00 0.00 0.00 0.00 0.00 0.00 0.00
0.00 0.00 0.00 0.00 0.00 0.00 0.00 0.00 0.00 0.00 0.00 0.00 0.00 0.00 0.00 0.00 0.00 0.00 0.00 0.00 0.00 0.00 0.00 0.00 0.01 0.00 0.00 0.00 0.00 0.01 0.03 0.01 0.02 0.01 0.00 0.00 0.00 0.00 0.00 0.00 0.00 0.00 0.00 0.00 0.00 0.00 0.00 0.00 0.00
0.00 0.00 0.00 0.00 0.00 0.00 0.00 0.00 0.00 0.00 0.00 0.00 0.00 0.00 0.00 0.00 0.00 0.00 0.00 0.00 0.00 0.00 0.00 0.01 0.01 0.00 0.00 0.00 0.00 0.00 0.00 0.00 0.00 0.00 0.00 0.00 0.00 0.00 0.00 0.00 0.00 0.00 0.00 0.00 0.00 0.00 0.00 0.00 0.00
0.00 0.00 0.00 0.00 0.00 0.00 0.00 0.00 0.00 0.00 0.00 0.00 0.00 0.00 0.00 0.00 0.00 0.00 0.00 0.00 0.00 0.00 0.00 0.00 0.00 0.00 0.00 0.01 0.00 0.00 0.00 0.00 0.00 0.00 0.00 0.00 0.00 0.00 0.00 0.00 0.00 0.00 0.00 0.00 0.00 0.00 0.00 0.00 0.00
0.00 0.00 0.00 0.00 0.00 0.00 0.00 0.00 0.00 0.00 0.00 0.00 0.00 0.00 0.00 0.00 0.00 0.00 0.00 0.00 0.00 0.00 0.00 0.00 0.00 0.01 0.00 0.00 0.00 0.00 0.00 0.00 0.00 0.00 0.00 0.00 0.00 0.00 0.00 0.00 0.00 0.00 0.00 0.00 0.00 0.00 0.00 0.00 0.00
0.00 0.00 0.00 0.00 0.00 0.00 0.00 0.00 0.00 0.00 0.00 0.00 0.00 0.00 0.00 0.00 0.00 0.00 0.00 0.00 0.00 0.00 0.00 0.00 0.00 0.00 0.00 0.00 0.00 0.00 0.00 0.00 0.00 0.00 0.00 0.00 0.00 0.00 0.00 0.00 0.00 0.00 0.00 0.00 0.00 0.00 0.00 0.00 0.00
0.00 0.00 0.00 0.00 0.00 0.00 0.00 0.00 0.00 0.00 0.00 0.00 0.00 0.00 0.00 0.00 0.00 0.00 0.00 0.00 0.00 0.00 0.00 0.00 0.00 0.00 0.00 0.00 0.00 0.00 0.00 0.00 0.00 0.00 0.00 0.00 0.00 0.00 0.00 0.00 0.00 0.00 0.00 0.00 0.00 0.00 0.00 0.00 0.00
0.00 0.00 0.00 0.00 0.00 0.00 0.00 0.00 0.00 0.00 0.00 0.00 0.00 0.00 0.00 0.00 0.00 0.00 0.00 0.00 0.00 0.00 0.00 0.00 0.00 0.00 0.00 0.00 0.00 0.00 0.00 0.00 0.00 0.00 0.00 0.00 0.00 0.00 0.00 0.00 0.00 0.00 0.00 0.00 0.00 0.00 0.00 0.00 0.00
0.00 0.00 0.00 0.00 0.00 0.00 0.00 0.00 0.00 0.00 0.00 0.00 0.00 0.00 0.00 0.00 0.00 0.00 0.00 0.00 0.00 0.00 0.00 0.00 0.00 0.00 0.00 0.00 0.00 0.00 0.00 0.00 0.00 0.00 0.00 0.00 0.00 0.00 0.00 0.00 0.00 0.00 0.00 0.00 0.00 0.00 0.00 0.00 0.00
0.00 0.00 0.00 0.00 0.00 0.00 0.00 0.00 0.00 0.00 0.00 0.00 0.00 0.00 0.00 0.00 0.00 0.00 0.00 0.00 0.00 0.00 0.00 0.00 0.00 0.00 0.00 0.00 0.00 0.00 0.00 0.00 0.00 0.00 0.00 0.00 0.00 0.00 0.00 0.00 0.00 0.00 0.00 0.00 0.00 0.00 0.00 0.00 0.00
0.00 0.00 0.00 0.00 0.00 0.00 0.00 0.00 0.00 0.00 0.00 0.00 0.00 0.00 0.00 0.00 0.00 0.00 0.00 0.00 0.00 0.00 0.00 0.00 0.00 0.00 0.00 0.00 0.00 0.00 0.00 0.00 0.00 0.00 0.00 0.00 0.00 0.00 0.00 0.00 0.00 0.00 0.00 0.00 0.00 0.00 0.00 0.00 0.00
0.00 0.00 0.00 0.00 0.00 0.00 0.00 0.00 0.00 0.00 0.00 0.00 0.00 0.00 0.00 0.00 0.00 0.00 0.00 0.00 0.00 0.00 0.00 0.00 0.00 0.00 0.00 0.00 0.00 0.00 0.00 0.00 0.00 0.00 0.00 0.00 0.00 0.00 0.00 0.00 0.00 0.00 0.00 0.00 0.00 0.00 0.00 0.00 0.00
0.00 0.00 0.00 0.00 0.00 0.00 0.00 0.00 0.00 0.00 0.00 0.00 0.00 0.00 0.00 0.00 0.00 0.00 0.00 0.00 0.00 0.00 0.00 0.00 0.00 0.00 0.00 0.00 0.00 0.00 0.00 0.00 0.00 0.00 0.00 0.00 0.00 0.00 0.00 0.00 0.00 0.00 0.00 0.00 0.00 0.00 0.00 0.00 0.00
0.00 0.00 0.00 0.00 0.00 0.00 0.00 0.00 0.00 0.00 0.00 0.00 0.00 0.00 0.00 0.00 0.00 0.00 0.00 0.00 0.00 0.00 0.00 0.00 0.00 0.00 0.00 0.00 0.00 0.00 0.00 0.00 0.00 0.00 0.00 0.00 0.00 0.00 0.00 0.00 0.00 0.00 0.00 0.00 0.00 0.00 0.00 0.00 0.00
0.00 0.00 0.00 0.00 0.00 0.00 0.00 0.00 0.00 0.00 0.00 0.00 0.00 0.00 0.00 0.00 0.00 0.00 0.00 0.00 0.00 0.00 0.00 0.00 0.00 0.00 0.00 0.00 0.00 0.00 0.00 0.00 0.00 0.00 0.00 0.00 0.00 0.00 0.00 0.00 0.00 0.00 0.00 0.00 0.00 0.00 0.00 0.00 0.00
0.00 0.00 0.00 0.00 0.00 0.00 0.00 0.00 0.00 0.00 0.00 0.00 0.00 0.00 0.00 0.00 0.00 0.00 0.00 0.00 0.00 0.00 0.00 0.00 0.00 0.00 0.00 0.00 0.00 0.00 0.00 0.00 0.00 0.00 0.00 0.00 0.00 0.00 0.00 0.00 0.00 0.00 0.00 0.01 0.01 0.00 0.00 0.00 0.00
0.00 0.00 0.00 0.00 0.00 0.00 0.00 0.00 0.00 0.00 0.00 0.00 0.00 0.00 0.00 0.00 0.00 0.00 0.00 0.00 0.00 0.00 0.00 0.00 0.00 0.00 0.00 0.00 0.00 0.00 0.00 0.01 0.00 0.00 0.00 0.00 0.00 0.00 0.00 0.00 0.01 0.01 0.13 0.06 0.10 0.07 0.04 0.00 0.00
0.00 0.00 0.00 0.00 0.00 0.00 0.00 0.00 0.00 0.00 0.00 0.00 0.00 0.00 0.00 0.00 0.00 0.00 0.00 0.00 0.00 0.00 0.00 0.00 0.00 0.00 0.00 0.00 0.00 0.00 0.01 0.03 0.01 0.01 0.00 0.00 0.00 0.00 0.00 0.00 0.00 0.00 0.07 0.16 0.15 0.16 0.21 0.05 0.04
0.00 0.00 0.00 0.00 0.00 0.00 0.00 0.00 0.00 0.00 0.00 0.00 0.00 0.00 0.00 0.00 0.00 0.00 0.00 0.00 0.00 0.00 0.00 0.00 0.00 0.00 0.00 0.00 0.00 0.00 0.00 0.00 0.02 0.04 0.02 0.01 0.00 0.00 0.00 0.00 0.00 0.00 0.00 0.02 0.06 0.03 0.17 0.23 0.13
0.00 0.00 0.00 0.00 0.00 0.00 0.00 0.00 0.00 0.00 0.00 0.00 0.00 0.00 0.00 0.00 0.00 0.00 0.00 0.00 0.00 0.00 0.00 0.00 0.00 0.00 0.00 0.00 0.00 0.00 0.03 0.01 0.02 0.02 0.01 0.00 0.00 0.04 0.04 0.03 0.01 0.00 0.00 0.00 0.00 0.00 0.00 0.02 0.02
0.00 0.00 0.00 0.00 0.00 0.00 0.00 0.00 0.00 0.00 0.00 0.00 0.00 0.00 0.00 0.00 0.00 0.00 0.00 0.00 0.00 0.00 0.00 0.00 0.00 0.00 0.00 0.01 0.04 0.09 0.16 0.11 0.02 0.03 0.02 0.02 0.06 0.06 0.04 0.02 0.01 0.02 0.02 0.01 0.00 0.00 0.00 0.00 0.00
0.00 0.00 0.00 0.00 0.00 0.00 0.00 0.00 0.00 0.00 0.00 0.00 0.00 0.00 0.00 0.00 0.00 0.00 0.00 0.00 0.00 0.00 0.00 0.00 0.00 0.02 0.13 0.26 0.27 0.29 0.25 0.15 0.08 0.06 0.06 0.07 0.05 0.01 0.01 0.01 0.01 0.01 0.00 0.00 0.00 0.00 0.00 0.00 0.00
0.00 0.00 0.00 0.00 0.00 0.00 0.00 0.00 0.00 0.00 0.00 0.00 0.00 0.00 0.00 0.00 0.00 0.00 0.00 0.00 0.00 0.00 0.00 0.00 0.03 0.06 0.06 0.12 0.14 0.16 0.17 0.16 0.13 0.11 0.10 0.06 0.04 0.02 0.01 0.02 0.02 0.01 0.00 0.00 0.00 0.00 0.00 0.00 0.00
0.00 0.00 0.00 0.00 0.00 0.00 0.00 0.00 0.00 0.00 0.00 0.00 0.00 0.00 0.00 0.00 0.00 0.00 0.00 0.00 0.00 0.00 0.01 0.08 0.12 0.11 0.14 0.17 0.21 0.20 0.20 0.20 0.16 0.12 0.08 0.04 0.03 0.01 0.02 0.02 0.02 0.01 0.00 0.00 0.00 0.00 0.00 0.00 0.00
0.00 0.00 0.00 0.00 0.00 0.00 0.00 0.00 0.00 0.00 0.00 0.00 0.00 0.00 0.00 0.00 0.00 0.00 0.01 0.00 0.00 0.00 0.02 0.19 0.21 0.15 0.09 0.07 0.08 0.04 0.03 0.04 0.04 0.03 0.02 0.01 0.01 0.01 0.01 0.02 0.01 0.00 0.00 0.00 0.00 0.00 0.00 0.00 0.00
0.00 0.00 0.00 0.00 0.00 0.00 0.00 0.00 0.00 0.00 0.00 0.00 0.00 0.00 0.00 0.00 0.00 0.00 0.01 0.00 0.00 0.00 0.05 0.14 0.16 0.15 0.07 0.02 0.01 0.00 0.00 0.00 0.00 0.01 0.02 0.05 0.04 0.03 0.03 0.02 0.02 0.01 0.00 0.00 0.00 0.00 0.00 0.00 0.00
0.00 0.00 0.00 0.00 0.00 0.00 0.00 0.00 0.00 0.00 0.00 0.00 0.00 0.00 0.00 0.00 0.00 0.00 0.00 0.00 0.00 0.03 0.13 0.12 0.16 0.08 0.02 0.00 0.00 0.00 0.00 0.00 0.00 0.00 0.02 0.03 0.04 0.03 0.03 0.02 0.01 0.00 0.00 0.00 0.00 0.00 0.00 0.00 0.00
MSLP
1010.40 1009.84 1009.72 1008.93 1007.69 1005.65 1006.28 1007.78 1008.15 1008.72 1009.10 1009.73 1010.32 1010.30 1010.62 1011.27 1011.03 1012.48 1014.25 1014.69 1014.87 1015.18 1015.84 1016.50 1017.11 1017.15 1017.14 1017.12 1017.14 1017.19 1017.18 1017.12 1017.23 1017.29 1017.36 1017.48 1017.48 1017.56 1017.72 1017.72 1017.76 1017.87 1018.03 1018.07 1018.09 1018.18 1018.22 1018.31 1018.39
1009.67 1010.06 1009.35 1007.60 1006.09 1005.87 1007.03 1007.70 1008.32 1009.02 1009.74 1010.33 1010.75 1010.79 1010.93 1011.95 1012.62 1013.38 1014.16 1014.98 1015.02 1015.17 1015.57 1016.15 1017.23 1017.23 1017.25 1017.30 1017.36 1017.31 1017.38 1017.33 1017.45 1017.63 1017.62 1017.67 1017.78 1017.87 1017.85 1018.00 1018.17 1018.21 1018.32 1018.31 1018.35 1018.40 1018.43 1018.49 1018.61
1009.95 1009.74 1008.10 1006.54 1005.48 1005.67 1006.98 1007.91 1009.20 1009.83 1010.28 1010.42 1010.78 1010.96 1011.54 1012.54 1013.11 1013.40 1014.33 1015.06 1015.15 1015.38 1015.59 1016.85 1017.39 1017.39 1017.48 1017.57 1017.58 1017.60 1017.57 1017.66 1017.76 1017.85 1017.95 1017.98 1018.10 1018.08 1018.22 1018.32 1018.40 1018.52 1018.52 1018.51 1018.55 1018.60 1018.66 1018.78 1018.82
1009.35 1008.64 1007.50 1006.06 1005.97 1006.71 1007.63 1008.59 1009.45 1009.91 1010.62 1010.76 1010.74 1011.49 1012.67 1013.01 1013.38 1013.75 1014.79 1014.97 1015.29 1015.46 1015.86 1017.18 1017.45 1017.55 1017.69 1017.73 1017.71 1017.73 1017.82 1017.99 1018.06 1018.09 1018.18 1018.30 1018.34 1018.39 1018.48 1018.46 1018.59 1018.72 1018.73 1018.74 1018.72 1018.75 1018.77 1018.84 1018.83
1008.97 1007.60 1006.28 1005.80 1006.29 1006.87 1007.43 1008.52 1009.16 1009.48 1010.14 1010.61 1010.77 1011.48 1012.68 1013.67 1013.85 1014.46 1014.88 1015.07 1015.26 1015.56 1016.00 1016.86 1017.66 1017.77 1017.81 1017.88 1017.97 1018.06 1018.09 1018.12 1018.21 1018.33 1018.38 1018.48 1018.55 1018.58 1018.56 1018.64 1018.68 1018.77 1018.85 1018.87 1018.88 1018.83 1018.83 1018.87 1018.85
1007.76 1007.15 1005.58 1005.56 1006.62 1007.37 1007.99 1008.65 1008.99 1009.41 1010.13 1010.77 1011.01 1011.55 1012.86 1013.94 1014.14 1014.50 1014.87 1015.01 1014.89 1015.41 1016.02 1016.62 1017.74 1017.85 1017.96 1018.06 1018.17 1018.29 1018.26 1018.28 1018.40 1018.48 1018.59 1018.65 1018.68 1018.69 1018.74 1018.80 1018.79 1018.84 1018.87 1018.88 1018.89 1018.87 1018.90 1018.94 1018.90
1007.26 1006.14 1005.49 1005.78 1006.82 1007.51 1008.14 1008.69 1008.71 1009.33 1010.01 1010.46 1010.85 1011.26 1013.18 1013.75 1014.20 1014.65 1015.12 1015.26 1015.20 1015.55 1015.92 1016.40 1016.95 1017.65 1017.90 1018.00 1018.24 1018.34 1018.38 1018.48 1018.58 1018.75 1018.81 1018.72 1018.67 1018.71 1018.77 1018.91 1018.91 1018.89 1018.88 1018.88 1018.86 1018.86 1018.91 1018.91 1018.86
1007.74 1006.42 1005.77 1006.06 1006.39 1007.40 1008.33 1008.82 1009.32 1009.36 1010.12 1010.75 1011.00 1011.55 1012.47 1013.45 1014.37 1014.87 1015.32 1015.51 1015.56 1015.71 1016.03 1016.56 1016.92 1016.90 1016.85 1017.51 1018.36 1018.49 1018.60 1018.58 1018.69 1018.84 1018.79 1018.76 1018.76 1018.79 1018.80 1018.82 1018.84 1018.89 1018.91 1018.87 1018.85 1018.87 1018.87 1018.86 1018.75
1007.74 1005.72 1005.54 1005.86 1006.11 1007.44 1008.46 1008.79 1009.66 1010.10 1010.54 1010.84 1011.16 1011.27 1012.34 1013.75 1014.32 1014.61 1015.09 1015.45 1015.87 1016.20 1016.42 1016.39 1016.80 1017.22 1017.72 1017.54 1018.25 1018.65 1018.71 1018.71 1018.76 1018.75 1018.85 1018.64 1017.64 1017.91 1018.17 1018.50 1018.69 1018.83 1018.86 1018.89 1018.81 1018.76 1018.77 1018.67 1018.40
1006.58 1005.51 1005.58 1006.17 1006.56 1007.26 1008.29 1008.64 1009.55 1009.91 1010.26 1010.81 1011.34 1011.83 1012.92 1013.86 1014.17 1014.21 1014.56 1014.79 1015.30 1015.74 1016.14 1016.51 1016.45 1017.11 1017.29 1017.19 1017.90 1017.96 1018.05 1017.77 1017.89 1018.11 1018.24 1017.68 1017.82 1017.82 1017.73 1018.24 1018.76 1018.75 1018.72 1018.70 1018.66 1018.74 1018.64 1018.33 1016.97
1006.68 1005.55 1006.49 1006.54 1006.71 1007.40 1008.10 1008.81 1009.31 1009.40 1009.63 1010.25 1011.01 1012.09 1013.04 1013.57 1013.88 1013.96 1014.17 1014.48 1014.98 1015.48 1015.97 1016.32 1016.54 1016.94 1016.87 1017.44 1017.53 1017.56 1017.72 1017.91 1018.14 1018.57 1018.49 1018.19 1017.97 1017.82 1017.49 1017.31 1017.43 1017.56 1018.28 1017.30 1017.80 1017.58 1017.24 1017.48 1017.48
1005.97 1006.39 1006.44 1006.77 1007.19 1007.73 1008.34 1008.95 1009.16 1009.37 1009.30 1009.92 1010.95 1012.08 1012.81 1013.17 1013.43 1013.71 1014.08 1014.56 1014.91 1015.39 1015.69 1016.12 1016.59 1017.26 1017.27 1017.55 1017.32 1017.67 1017.62 1017.96 1017.84 1018.27 1018.56 1018.30 1017.65 1017.82 1017.64 1017.18 1017.47 1017.75 1017.27 1017.63 1017.75 1017.18 1017.52 1017.57 1017.79
1006.20 1006.29 1006.65 1007.20 1007.67 1008.00 1008.83 1009.06 1009.47 1009.95 1010.10 1010.58 1011.47 1012.19 1012.51 1012.82 1013.27 1013.61 1014.16 1014.68 1014.99 1015.49 1015.80 1016.20 1016.95 1017.40 1017.61 1018.00 1017.96 1018.01 1017.67 1017.78 1017.95 1018.17 1018.57 1018.32 1017.90 1017.96 1017.58 1017.61 1017.47 1017.51 1017.59 1017.51 1017.51 1017.50 1017.69 1017.65 1017.29
1006.70 1006.49 1007.31 1007.75 1008.02 1008.43 1008.67 1009.26 1009.38 1010.51 1010.81 1011.26 1011.80 1012.24 1012.48 1012.65 1013.06 1013.55 1014.20 1014.58 1015.03 1015.42 1015.93 1016.40 1017.01 1017.54 1017.68 1017.77 1018.18 1018.02 1017.91 1018.00 1018.13 1018.16 1018.29 1018.60 1018.28 1018.22 1017.72 1017.56 1017.41 1017.39 1017.56 1017.47 1017.49 1017.70 1017.52 1017.26 1017.18
1006.61 1006.63 1007.21 1007.77 1008.15 1008.48 1008.62 1009.01 1009.08 1010.22 1010.76 1011.31 1011.85 1012.21 1012.47 1012.75 1013.08 1013.44 1014.06 1014.58 1015.08 1015.44 1015.83 1016.40 1016.92 1017.20 1017.69 1017.98 1018.06 1017.90 1017.85 1017.52 1017.90 1017.99 1018.35 1018.50 1018.50 1018.32 1018.38 1017.68 1017.53 1017.46 1017.66 1017.93 1017.82 1017.87 1017.59 1017.17 1016.77
1006.17 1006.22 1006.25 1007.62 1007.98 1008.50 1008.46 1007.50 1009.08 1009.97 1010.32 1010.89 1011.46 1011.94 1012.43 1012.71 1013.00 1013.33 1013.92 1014.46 1014.99 1015.31 1015.86 1016.37 1016.65 1016.99 1017.49 1017.70 1017.87 1017.66 1017.60 1017.74 1017.82 1017.88 1017.98 1018.26 1018.35 1018.35 1018.25 1017.69 1017.50 1017.68 1017.64 1017.46 1017.34 1017.33 1017.04 1016.71 1016.42
1006.30 1005.56 1006.32 1007.28 1007.68 1007.97 1008.25 1007.41 1008.68 1009.68 1009.93 1010.25 1010.99 1011.46 1012.00 1012.36 1012.84 1013.23 1013.72 1014.22 1014.59 1015.33 1016.08 1016.59 1016.89 1016.98 1017.36 1017.80 1017.75 1017.76 1017.72 1017.77 1017.51 1017.58 1017.66 1018.11 1018.29 1018.22 1018.29 1017.62 1017.47 1018.06 1017.54 1017.36 1017.33 1017.05 1017.27 1016.85 1016.46
1005.35 1005.73 1006.17 1006.34 1007.22 1007.66 1007.62 1007.50 1008.13 1009.05 1009.39 1009.71 1010.28 1010.87 1011.34 1011.72 1012.14 1012.80 1013.38 1013.78 1014.27 1015.13 1015.89 1016.55 1016.89 1017.20 1017.53 1017.55 1017.89 1017.55 1017.29 1017.29 1017.33 1017.35 1017.35 1017.75 1017.75 1018.20 1018.27 1017.62 1017.95 1018.02 1017.53 1017.40 1017.43 1017.78 1017.33 1017.27 1016.63
1005.88 1005.84 1006.25 1006.47 1007.38 1007.36 1007.09 1007.02 1006.98 1008.15 1008.59 1008.88 1009.48 1010.12 1010.59 1010.96 1011.44 1012.09 1012.90 1013.49 1013.93 1014.62 1015.40 1016.01 1016.71 1017.12 1017.50 1017.43 1017.32 1017.20 1016.89 1016.97 1017.05 1017.26 1017.67 1017.80 1017.84 1017.91 1018.02 1017.71 1017.63 1017.78 1017.83 1017.76 1018.13 1017.93 1017.36 1017.18 1016.78
1005.64 1005.60 1005.76 1006.66 1007.39 1007.45 1006.73 1006.72 1006.42 1006.97 1007.66 1007.93 1008.61 1009.05 1009.63 1010.15 1010.69 1011.42 1012.18 1012.84 1013.40 1013.95 1014.78 1015.61 1016.17 1016.76 1017.22 1017.17 1017.31 1017.05 1016.75 1016.61 1016.72 1017.14 1017.73 1017.85 1017.92 1018.07 1017.89 1018.05 1017.75 1017.89 1018.29 1018.28 1018.31 1018.21 1017.87 1017.11 1016.92
1004.99 1005.05 1005.66 1006.36 1007.21 1007.54 1007.26 1005.96 1005.69 1006.19 1006.95 1007.41 1007.86 1008.34 1008.66 1009.13 1009.82 1010.61 1011.42 1012.08 1012.52 1013.14 1013.73 1014.64 1015.45 1015.95 1016.61 1016.87 1017.07 1017.20 1017.35 1017.37 1017.31 1017.35 1017.50 1017.75 1018.17 1018.27 1018.31 1018.63 1018.75 1018.50 1018.37 1018.20 1018.26 1018.44 1018.29 1017.93 1017.65
1004.29 1005.50 1005.76 1006.00 1006.44 1005.84 1006.72 1005.06 1005.35 1005.45 1005.97 1006.53 1007.11 1007.47 1007.94 1008.43 1009.07 1009.55 1010.46 1011.27 1011.74 1012.13 1012.84 1013.80 1014.83 1015.71 1016.06 1016.46 1016.53 1016.66 1016.40 1016.33 1016.27 1016.95 1017.32 1018.05 1018.38 1018.65 1018.56 1018.59 1018.52 1018.56 1018.21 1018.47 1018.39 1018.17 1018.34 1018.20 1017.81
1005.11 1005.64 1005.51 1005.77 1005.54 1005.62 1005.24 1004.92 1004.20 1005.22 1005.63 1005.82 1006.31 1006.78 1007.20 1007.61 1008.22 1008.70 1009.41 1010.20 1010.95 1011.48 1012.03 1012.86 1013.95 1014.90 1015.58 1016.02 1016.20 1016.18 1016.59 1016.34 1016.48 1016.98 1017.91 1018.40 1018.86 1018.92 1019.20 1019.24 1019.15 1019.15 1018.51 1019.07 1019.12 1018.98 1018.80 1018.24 1017.94
1005.72 1005.56 1005.39 1005.31 1004.80 1003.78 1004.05 1004.36 1003.05 1003.68 1005.03 1005.55 1006.10 1006.68 1006.94 1007.31 1007.74 1008.08 1008.63 1009.33 1010.15 1010.98 1011.63 1012.32 1013.42 1014.44 1015.14 1015.63 1015.96 1016.46 1016.59 1016.93 1016.97 1017.40 1018.07 1018.92 1019.77 1019.85 1019.80 1020.21 1019.93 1020.10 1020.10 1020.00 1019.71 1019.60 1019.44 1019.36 1019.13
1005.44 1004.60 1003.65 1003.26 1002.92 1002.64 1004.11 1004.14 1003.13 1003.95 1005.01 1006.24 1006.94 1007.09 1007.06 1007.04 1007.49 1007.96 1008.40 1008.92 1009.65 1010.46 1011.48 1012.42 1013.69 1014.83 1015.60 1016.39 1016.95 1017.36 1017.50 1017.44 1017.32 1017.83 1018.73 1019.60 1020.18 1020.51 1020.90 1021.23 1021.04 1021.02 1021.10 1020.67 1020.34 1020.22 1020.02 1019.79 1019.70
1004.58 1004.03 1003.72 1003.50 1002.59 1002.11 1003.80 1003.15 1003.02 1004.40 1005.70 1006.82 1008.00 1008.43 1007.51 1007.16 1007.12 1007.69 1008.18 1009.23 1010.20 1011.01 1012.04 1012.90 1015.42 1016.72 1017.40 1017.89 1018.53 1018.93 1019.11 1019.02 1017.96 1018.13 1018.69 1019.89 1020.45 1020.89 1021.20 1021.49 1021.67 1021.64 1021.85 1021.32 1021.22 1020.48 1020.16 1020.34 1020.38
1003.56 1004.36 1003.61 1003.09 1002.98 1002.87 1002.51 1002.19 1002.89 1003.77 1005.39 1006.98 1008.25 1009.22 1009.34 1009.36 1008.75 1008.30 1008.71 1009.67 1010.96 1011.79 1014.19 1015.41 1016.30 1017.16 1017.90 1018.67 1019.06 1019.21 1019.71 1020.04 1020.13 1020.07 1018.94 1019.88 1020.96 1021.53 1021.57 1021.66 1022.09 1021.80 1021.90 1021.80 1021.71 1021.44 1021.17 1020.81 1020.92
1004.04 1003.97 1003.42 1003.06 1002.70 1002.17 1001.79 1001.79 1002.28 1003.32 1004.74 1007.29 1009.15 1010.56 1011.34 1011.61 1011.69 1011.99 1012.32 1012.80 1013.55 1014.47 1015.26 1015.97 1016.40 1017.45 1017.86 1018.47 1019.64 1020.46 1020.26 1021.15 1020.49 1019.19 1019.71 1020.23 1020.98 1021.84 1022.40 1022.20 1022.88 1023.02 1022.90 1022.69 1022.52 1022.23 1022.01 1021.53 1021.04
1003.50 1003.46 1003.35 1003.05 1002.80 1002.16 1001.82 1001.60 1002.68 1003.83 1005.62 1007.66 1010.15 1011.84 1012.64 1012.98 1013.61 1013.99 1014.45 1014.89 1015.38 1015.87 1016.52 1016.82 1017.44 1016.50 1016.16 1017.38 1017.72 1019.25 1020.60 1021.41 1020.86 1020.50 1020.66 1021.15 1021.32 1022.30 1022.58 1022.67 1022.92 1023.15 1022.97 1022.59 1022.27 1021.88 1021.96 1022.00 1021.66
1003.22 1002.82 1002.47 1001.99 1002.25 1002.23 1002.63 1002.79 1004.52 1005.69 1007.41 1009.37 1011.43 1013.10 1014.17 1014.62 1014.92 1015.24 1015.59 1015.96 1016.29 1016.58 1017.03 1017.38 1017.80 1018.04 1018.08 1018.15 1018.43 1019.28 1020.18 1020.87 1021.17 1021.02 1021.09 1021.20 1022.05 1022.46 1022.40 1022.36 1023.01 1022.82 1022.72 1022.45 1022.10 1022.11 1021.73 1021.64 1021.19
Thickness
5812 5818 5820 5816 5799 5817 5793 5781 5801 5788 5789 5801 5799 5793 5787 5785 5783 5763 5785 5785 5783 5779 5773 5768 5764 5764 5764 5765 5764 5764 5764 5764 5764 5764 5764 5763 5763 5764 5762 5761 5761 5759 5757 5756 5753 5752 5752 5751 5750
5820 5817 5817 5815 5802 5784 5777 5800 5788 5795 5798 5801 5797 5795 5789 5773 5787 5783 5781 5783 5782 5780 5777 5773 5766 5765 5765 5764 5763 5764 5763 5764 5764 5764 5764 5763 5763 5763 5763 5762 5760 5759 5757 5756 5755 5754 5753 5752 5751
5820 5820 5811 5808 5808 5790 5782 5800 5789 5795 5800 5798 5792 5802 5792 5776 5788 5789 5790 5785 5782 5781 5779 5770 5766 5766 5765 5764 5763 5763 5764 5763 5763 5764 5763 5763 5763 5763 5762 5762 5760 5759 5758 5758 5757 5755 5754 5753 5752
5818 5819 5821 5808 5794 5802 5792 5798 5798 5795 5796 5801 5802 5783 5790 5798 5791 5796 5790 5786 5783 5782 5779 5770 5767 5766 5764 5763 5763 5763 5763 5763 5763 5763 5763 5763 5763 5763 5763 5763 5761 5760 5760 5759 5758 5757 5756 5755 5755
5823 5822 5805 5804 5800 5809 5816 5811 5808 5799 5798 5796 5802 5785 5782 5791 5798 5794 5790 5788 5784 5783 5780 5773 5766 5765 5764 5763 5763 5762 5763 5763 5763 5763 5763 5763 5763 5763 5764 5763 5764 5763 5762 5761 5760 5760 5759 5759 5759
5813 5821 5806 5798 5797 5806 5811 5813 5811 5805 5802 5797 5795 5791 5784 5794 5793 5793 5792 5789 5789 5786 5780 5775 5767 5765 5765 5764 5763 5762 5763 5764 5763 5763 5764 5764 5764 5764 5764 5764 5765 5765 5764 5764 5764 5764 5763 5762 5761
5811 5816 5808 5809 5797 5798 5805 5819 5811 5805 5800 5797 5808 5789 5785 5789 5795 5795 5790 5789 5787 5785 5782 5779 5774 5769 5767 5766 5764 5764 5764 5763 5763 5763 5764 5765 5766 5766 5766 5766 5766 5767 5767 5767 5767 5767 5766 5765 5764
5816 5821 5808 5810 5800 5794 5811 5813 5815 5811 5799 5815 5813 5783 5779 5792 5794 5793 5789 5787 5786 5784 5781 5778 5776 5775 5776 5771 5765 5764 5764 5765 5765 5764 5766 5767 5767 5769 5770 5771 5770 5770 5770 5770 5770 5770 5769 5768 5769
5828 5816 5804 5807 5808 5801 5814 5806 5814 5817 5803 5806 5808 5806 5805 5799 5795 5792 5787 5785 5781 5779 5779 5780 5778 5775 5771 5773 5768 5766 5766 5767 5767 5767 5767 5770 5776 5776 5776 5775 5775 5774 5773 5772 5772 5773 5772 5772 5774
5823 5815 5813 5826 5824 5813 5812 5813 5807 5805 5803 5799 5801 5808 5804 5798 5793 5790 5787 5785 5783 5781 5783 5782 5781 5777 5776 5777 5772 5772 5772 5775 5774 5773 5772 5777 5776 5777 5780 5778 5775 5775 5775 5775 5775 5775 5774 5777 5785
5824 5816 5820 5824 5830 5825 5815 5810 5817 5810 5801 5807 5799 5799 5799 5797 5794 5794 5793 5792 5789 5788 5787 5786 5783 5780 5781 5777 5777 5777 5776 5775 5773 5771 5772 5775 5777 5780 5783 5785 5785 5784 5780 5786 5783 5784 5785 5783 5782
5821 5827 5828 5825 5828 5820 5810 5816 5811 5814 5817 5824 5816 5809 5803 5799 5797 5796 5794 5793 5793 5791 5792 5791 5786 5781 5779 5777 5780 5779 5780 5777 5777 5775 5773 5776 5782 5781 5784 5787 5786 5783 5787 5785 5784 5788 5784 5783 5781
5823 5828 5833 5829 5824 5822 5817 5809 5807 5805 5819 5821 5814 5809 5804 5804 5801 5801 5799 5797 5796 5791 5792 5792 5786 5782 5780 5776 5776 5777 5781 5781 5780 5777 5774 5776 5780 5781 5785 5785 5786 5786 5786 5786 5786 5786 5784 5784 5785
5828 5831 5824 5825 5821 5819 5811 5807 5813 5805 5815 5810 5807 5804 5805 5805 5804 5801 5796 5795 5794 5794 5792 5793 5788 5783 5781 5780 5777 5779 5781 5780 5780 5780 5779 5776 5778 5779 5784 5785 5787 5787 5786 5786 5786 5785 5786 5786 5786
5832 5817 5821 5819 5819 5813 5821 5800 5805 5812 5813 5804 5802 5804 5805 5805 5805 5800 5799 5795 5795 5795 5796 5792 5790 5787 5783 5781 5779 5781 5783 5786 5783 5782 5779 5778 5778 5779 5779 5784 5785 5786 5785 5782 5782 5781 5783 5786 5789
5821 5824 5804 5814 5818 5817 5817 5800 5809 5816 5812 5805 5804 5804 5802 5803 5804 5803 5801 5798 5797 5797 5793 5793 5792 5789 5785 5784 5783 5784 5784 5783 5782 5783 5783 5780 5779 5779 5779 5784 5785 5783 5783 5784 5785 5786 5787 5789 5791
5813 5801 5801 5801 5823 5816 5809 5805 5814 5817 5814 5808 5806 5806 5804 5804 5804 5805 5803 5801 5800 5796 5790 5788 5788 5788 5785 5781 5782 5783 5784 5782 5784 5783 5782 5778 5778 5779 5779 5783 5784 5780 5783 5785 5785 5787 5784 5786 5789
5802 5801 5807 5805 5815 5814 5807 5808 5816 5816 5814 5811 5811 5809 5807 5806 5807 5810 5806 5805 5803 5798 5792 5788 5787 5785 5782 5781 5779 5782 5784 5785 5784 5784 5785 5781 5780 5776 5776 5782 5779 5778 5782 5782 5783 5779 5784 5782 5786
5817 5811 5803 5815 5817 5811 5811 5813 5824 5821 5818 5815 5813 5811 5810 5810 5817 5817 5812 5808 5806 5801 5794 5789 5785 5783 5781 5781 5780 5781 5782 5784 5785 5782 5778 5779 5778 5777 5776 5777 5779 5778 5778 5779 5775 5776 5779 5780 5786
5819 5812 5811 5814 5816 5811 5817 5811 5829 5829 5822 5824 5819 5818 5816 5815 5816 5817 5815 5812 5808 5803 5798 5792 5788 5784 5781 5782 5781 5782 5785 5786 5784 5781 5777 5776 5775 5775 5776 5773 5776 5774 5772 5772 5770 5770 5771 5778 5781
5824 5817 5810 5805 5810 5811 5805 5812 5824 5832 5831 5830 5830 5828 5826 5822 5816 5815 5815 5814 5815 5809 5805 5799 5794 5791 5785 5783 5781 5778 5777 5777 5777 5778 5777 5774 5770 5769 5769 5766 5765 5766 5767 5768 5768 5766 5764 5763 5769
5819 5828 5821 5815 5805 5798 5812 5793 5811 5827 5827 5828 5830 5832 5830 5828 5826 5824 5818 5815 5815 5816 5814 5807 5798 5791 5789 5786 5782 5777 5778 5776 5781 5777 5775 5768 5764 5761 5762 5762 5762 5762 5763 5762 5763 5766 5762 5761 5759
5817 5829 5823 5819 5814 5810 5814 5805 5824 5826 5815 5826 5833 5834 5836 5835 5832 5828 5825 5822 5820 5820 5816 5812 5803 5795 5790 5786 5783 5780 5773 5778 5778 5774 5764 5760 5756 5756 5752 5750 5752 5752 5755 5750 5752 5754 5756 5761 5761
5827 5820 5820 5821 5820 5805 5817 5811 5827 5832 5824 5829 5835 5834 5835 5834 5834 5834 5835 5830 5822 5821 5817 5812 5803 5794 5790 5786 5782 5776 5772 5767 5766 5762 5757 5750 5743 5742 5742 5737 5738 5737 5738 5739 5741 5741 5743 5744 5747
5818 5814 5800 5797 5807 5807 5816 5805 5826 5840 5839 5828 5823 5827 5835 5838 5835 5831 5828 5827 5823 5819 5814 5808 5798 5788 5782 5775 5770 5765 5761 5759 5759 5753 5745 5737 5732 5730 5725 5723 5724 5722 5722 5727 5729 5730 5732 5734 5735
5808 5817 5790 5757 5790 5816 5812 5796 5821 5838 5832 5828 5820 5817 5832 5837 5841 5835 5832 5825 5817 5811 5805 5801 5773 5761 5759 5757 5750 5744 5740 5738 5748 5745 5736 5725 5720 5718 5714 5713 5711 5708 5706 5710 5712 5718 5722 5720 5719
5814 5788 5826 5805 5817 5796 5815 5830 5840 5842 5829 5821 5814 5808 5809 5811 5824 5832 5829 5823 5811 5802 5781 5768 5761 5754 5749 5741 5737 5733 5724 5720 5722 5717 5716 5709 5703 5699 5701 5701 5697 5695 5695 5696 5696 5700 5703 5709 5708
5809 5820 5792 5804 5766 5765 5804 5809 5807 5825 5824 5813 5800 5790 5788 5792 5794 5793 5791 5789 5783 5775 5769 5763 5758 5745 5739 5733 5720 5711 5716 5703 5709 5715 5691 5694 5687 5684 5683 5688 5678 5678 5680 5685 5684 5685 5688 5691 5698
5799 5793 5800 5805 5799 5777 5777 5804 5834 5824 5821 5808 5792 5780 5777 5780 5774 5770 5768 5765 5762 5759 5752 5748 5738 5739 5728 5730 5718 5708 5698 5692 5694 5698 5691 5685 5685 5673 5670 5669 5667 5666 5671 5672 5676 5680 5679 5678 5682
5811 5804 5811 5792 5781 5799 5787 5790 5818 5810 5802 5793 5779 5766 5760 5761 5761 5759 5757 5755 5751 5748 5742 5736 5730 5722 5721 5714 5708 5703 5692 5683 5684 5685 5676 5676 5664 5662 5664 5664 5660 5664 5664 5665 5669 5669 5672 5672 5674